Simultaneous Nadir Overpasses (SNOs) Predictions

Prediction of SNOs between NOAA-15 and METOP-C Satellite Orbit:

Table of predicted SNOs for the next 14.0 days since TLE Epoch: 7/6/2024
Index Date (NOAA-15) Time (NOAA-15) Lat,Lon (NOAA-15) SZA (NOAA-15 ) Date (METOP-C) Time (METOP-C) Lat,Lon (METOP-C) SZA (METOP-C ) Distance(km) Time Diff (sec)
1 07/13/2024 04:03:08 -81.05, -22.63 118.86 07/13/2024 04:01:54 -81.01, -23.21 118.98 11.12 74
2 07/13/2024 04:53:39 81.04, 144.81 61.15 07/13/2024 04:52:32 81.03, 144.77 61.11 1.37 67
3 07/13/2024 05:44:07 -81.04, -47.61 118.83 07/13/2024 05:43:13 -81.05, -47.60 118.85 1.25 54
4 07/13/2024 06:34:38 81.03, 119.83 61.18 07/13/2024 06:33:53 81.04, 119.65 61.15 3.29 45
5 07/13/2024 07:25:07 -81.04, -72.96 118.83 07/13/2024 07:24:35 -81.04, -73.08 118.86 2.12 32
6 07/13/2024 08:15:38 81.04, 94.48 61.18 07/13/2024 08:15:14 81.05, 94.54 61.19 1.90 24
7 07/13/2024 09:06:07 -81.05, -98.31 118.83 07/13/2024 09:05:56 -81.05, -98.20 118.82 1.92 11
8 07/13/2024 09:56:38 81.04, 69.14 61.19 07/13/2024 09:56:36 81.05, 69.05 61.18 1.69 2
9 07/13/2024 10:47:07 -81.05,-123.66 118.82 07/13/2024 10:47:18 -81.04,-123.69 118.83 0.93 11
10 07/13/2024 11:37:38 81.05, 43.79 61.19 07/13/2024 11:37:57 81.05, 43.93 61.22 2.50 19
11 07/13/2024 12:28:06 -81.04,-148.64 118.80 07/13/2024 12:28:39 -81.05,-148.81 118.79 3.29 33
12 07/13/2024 13:18:38 81.05, 18.45 61.20 07/13/2024 13:19:19 81.05, 18.44 61.21 0.30 41
13 07/13/2024 14:09:07 -81.06,-174.36 118.81 07/13/2024 14:10:01 -81.05,-174.30 118.80 1.88 54
14 07/13/2024 14:59:38 81.06, -6.90 61.20 07/13/2024 15:00:41 81.04, -7.05 61.20 3.03 63



Historial Predications of SNOs between NOAA-15 and METOP-C
